Flag for U.S.A. Weather past 2 weeks in Provo, Utah, U.S.A.

Now
90 °F

Partly sunny.


Feels Like: 92 °F
Forecast: 69 / 94 °F
Wind: 5 mph from North

Location: Provo Municipal

Current Time: Jun 30, 2015 at 8:58:16 PM

Latest Report: Jun 30, 2015 at 7:53 PM


Visibility: 15 mi

Pressure: 29.99 "Hg

Humidity: 46%

Dew point: 66 °F

Location of ProvoLocation

Historic Weather in Provo — Graph

°F

Provo temperature yesterday

Maximum temperature yesterday: 99 °F (at 3:53 PM)
Minimum temperature yesterday: 70 °F (at 1:15 AM)
Average temperature yesterday: 79 °F

Past Weeks' High & Low Weather Summary

 TemperatureHumidityPressure
High99 °F (Jun 27, 3:57 PM)63% (Jun 18, 6:15 AM)30.23 "Hg (Jun 18, 6:15 AM)
Low54 °F (Jun 18, 6:15 AM)9% (Jun 18, 4:54 PM)29.83 "Hg (Jun 21, 6:56 PM)
Average74 °F38%30.04 "Hg
* Reported Jun 15 7:56 PM — Jun 30 7:53 PM, Provo, Weather by CustomWeather, © 2015

Note: Actual official high and low records may vary slightly from our data, if they occured in-between our weather recording intervals... More about our weather records

Advertising

Provo weather history for previous 24 hours

 ConditionsComfort  
Time TempWeatherWind HumidityBarometerVisibility
7:53 PM
Tue, Jun 30
90 °FPartly sunny.5 mph46%29.99 "Hg15 mi
6:50 PM93 °FPartly sunny.8 mph28%29.98 "Hg15 mi
5:50 PM95 °FScattered clouds.6 mph30%29.98 "Hg15 mi
4:49 PM97 °FScattered clouds.7 mph22%30.00 "Hg15 mi
3:58 PM93 °FScattered clouds.9 mph30%30.01 "Hg15 mi
2:50 PM97 °FPartly sunny.No wind19%30.04 "Hg15 mi
1:50 PM95 °FPartly sunny.No wind20%30.07 "Hg15 mi
12:50 PM93 °FPartly sunny.No wind20%30.10 "Hg15 mi
11:50 AM91 °FPartly sunny.No wind26%30.11 "Hg15 mi
10:50 AM88 °FPartly sunny.No wind29%30.11 "Hg15 mi
9:50 AM82 °FPartly sunny.No wind35%30.12 "Hg15 mi
8:50 AM81 °FPartly sunny.6 mph37%30.12 "Hg15 mi
7:50 AM75 °FBroken clouds.No wind39%30.13 "Hg15 mi
6:49 AM73 °FPartly cloudy.6 mph47%30.12 "Hg15 mi
6:35 AM72 °FClear.8 mph50%30.12 "Hg10 mi
5:55 AM70 °FClear.3 mph50%30.11 "Hg10 mi
5:35 AM70 °FClear.3 mph53%30.11 "Hg10 mi
5:15 AM70 °FClear.7 mph50%30.11 "Hg10 mi
4:55 AM72 °FClear.7 mph47%30.10 "Hg10 mi
4:35 AM73 °FClear.3 mph50%30.09 "Hg10 mi
4:15 AM72 °FClear.5 mph53%30.09 "Hg10 mi
3:55 AM73 °FClear.3 mph53%30.08 "Hg10 mi
3:35 AM72 °FClear.No wind50%30.08 "Hg10 mi
3:15 AM72 °FClear.3 mph50%30.07 "Hg10 mi
2:55 AM72 °FClear.8 mph47%30.08 "Hg10 mi
2:35 AM73 °FClear.No wind47%30.09 "Hg10 mi
2:15 AM73 °FClear.7 mph47%30.08 "Hg10 mi
1:55 AM73 °FClear.9 mph47%30.07 "Hg10 mi
1:35 AM75 °FClear.7 mph44%30.07 "Hg10 mi
1:15 AM75 °FClear.8 mph44%30.07 "Hg10 mi
12:55 AM73 °FClear.8 mph50%30.07 "Hg10 mi
12:35 AM75 °FClear.9 mph47%30.07 "Hg10 mi
12:15 AM75 °FClear.No wind47%30.07 "Hg10 mi
11:55 PM
Mon, Jun 29
75 °FClear.5 mph44%30.07 "Hg10 mi
11:35 PM79 °FClear.5 mph48%30.07 "Hg10 mi
11:15 PM79 °FClear.3 mph42%30.06 "Hg10 mi
10:55 PM81 °FClear.No wind34%30.06 "Hg10 mi
10:15 PM81 °FClear.No wind32%30.06 "Hg10 mi
9:55 PM84 °FSunny.7 mph27%30.05 "Hg10 mi
9:35 PM86 °FSunny.3 mph25%30.05 "Hg10 mi
8:47 PM88 °FScattered clouds.12 mph25%30.03 "Hg15 mi
Weather by CustomWeather, © 2015

See weather overviewHow to use our weather pages